This is the latest recevied weather packets stored in our database for station/object N3FWE. If no packets are shown the sender has not sent any weather packets the latest 10 day(s).
| Time | Temp. | Humidity | Pressure | Rain* | Wind** | Luminosity | Snow |
|---|---|---|---|---|---|---|---|
| 1777044610 | 21.67° C | 38% | 1010.7 hPa | 0 mm | - | - | - |
| 1777044009 | 21.11° C | 37% | 1010.8 hPa | 0 mm | - | - | - |
| 1777043410 | 21.67° C | 37% | 1010.7 hPa | 0 mm | - | - | - |
| 1777042810 | 22.22° C | 35% | 1010.6 hPa | 0 mm | - | - | - |
| 1777042209 | 22.22° C | 36% | 1010.7 hPa | 0 mm | - | - | - |
| 1777041608 | 21.11° C | 40% | 1010.8 hPa | 0 mm | - | - | - |
| 1777041008 | 21.11° C | 38% | 1010.8 hPa | 0 mm | - | - | - |
| 1777040408 | 21.11° C | 36% | 1011 hPa | 0 mm | - | - | - |
| 1777039808 | 20.56° C | 38% | 1011.2 hPa | 0 mm | - | - | - |
| 1777039208 | 20° C | 39% | 1011.5 hPa | 0 mm | - | - | - |
| 1777038608 | 19.44° C | 39% | 1011.4 hPa | 0 mm | - | - | - |
| 1777038009 | 18.89° C | 40% | 1011.5 hPa | 0 mm | - | - | - |
| 1777037409 | 18.33° C | 45% | 1011.6 hPa | 0 mm | - | - | - |
| 1777036808 | 17.78° C | 47% | 1011.9 hPa | 0 mm | - | - | - |
| 1777036208 | 17.22° C | 50% | 1011.8 hPa | 0 mm | - | - | - |
| 1777035609 | 16.67° C | 49% | 1011.8 hPa | 0 mm | - | - | - |
| 1777035008 | 16.11° C | 51% | 1011.7 hPa | 0 mm | - | - | - |
| 1777034408 | 15.56° C | 53% | 1011.8 hPa | 0 mm | - | - | - |
| 1777033808 | 15° C | 57% | 1011.9 hPa | 0 mm | - | - | - |
| 1777033208 | 14.44° C | 70% | 1011.8 hPa | 0 mm | - | - | - |
| 1777032609 | 13.89° C | 72% | 1011.5 hPa | 0 mm | - | - | - |
| 1777032008 | 12.78° C | 73% | 1011.4 hPa | 0 mm | - | - | - |
| 1777031408 | 12.22° C | 77% | 1011.3 hPa | 0 mm | - | - | - |
| 1777030809 | 11.11° C | 79% | 1011.3 hPa | 0 mm | - | - | - |
| 1777030209 | 10.56° C | 81% | 1011.3 hPa | 0 mm | - | - | - |
* Rain latest hour (hover to see other rain measurements)
** Current wind speed in m/s (hover to see current wind gust speed)